Location: Altmatt
(47.1333°N, 8.7000°E)
Time: 18:09:09
(UTC+00:00)

IGS 5A - Pass Details

Date: 13 July 2020
Orbit: 582 x 589 km, 97.6° (Epoch: 08 August)

Event Time Altitude Azimuth Distance (km) Brightness Sun altitude
Exits shadow 19:54:15 - 143° (SE) 2,198 5.7 -5.7°
Reaches altitude 10° 19:54:59 10° 140° (SE) 1,907 5.4 -5.8°
Maximum altitude 19:58:52 41° 71° (ENE) 861 4.1 -6.3°
Drops below altitude 10° 20:02:46 10° 1° (N) 1,918 6.7 -6.8°
Sets 20:05:01 0° 354° (N) 2,822 7.8 -7.1°
